Location: Alfortville
(48.8058°N, 2.4204°E)
Time: 03:56:38
(UTC+00:00)

Cosmos 1980 Rocket - Pass Details

Date: 31 May 2022
Orbit: 827 x 851 km, 71.0° (Epoch: 06 July)

Event Time Altitude Azimuth Distance (km) Brightness Sun altitude
Rises 22:34:26 0° 278° (W) 3,398 5.7 -17.3°
Reaches altitude 10° 22:38:32 10° 306° (NW) 2,472 5.4 -17.5°
Maximum altitude 22:40:55 13° 332° (NNW) 2,293 5.6 -17.6°
Drops below altitude 10° 22:43:20 10° 357° (N) 2,482 5.9 -17.7°
Sets 22:47:28 0° 26° (NNE) 3,425 6.2 -17.9°
